Weather History for Grand Marais Airport, MN

Change the Weather History Date:

Friday, August 9, 2013

  Actual Average Record
Temperature  
Mean Temperature 55 °F -  
Max Temperature 64 °F 70 °F 84 °F (1998)
Min Temperature 46 °F 49 °F 46 °F (2012)
Degree Days  
Heating Degree Days 10    
Growing Degree Days 5 (Base 50)    
Moisture  
Dew Point 46 °F    
Average Humidity 74    
Maximum Humidity 87    
Minimum Humidity 52    
Precipitation  
Precipitation 0.00 in - - ()
Sea Level Pressure  
Sea Level Pressure 29.98 in    
Wind  
Wind Speed 6 mph (WNW)    
Max Wind Speed 14 mph    
Max Gust Speed 23 mph    
Visibility 10 miles    
Events Rain    
Averages and records for this station are not official NWS values.
T = Trace of Precipitation, MM = Missing Value Source: NWS Daily Summary

Daily Weather History Graph

Daily Weather History Graph

Search for Another Location

Airport:

Trip Planner

Search our weather history database for the weather conditions in past years. The results will help you decide how hot, cold, wet, or windy it might be!

Date:

Astronomy

Aug. 09, 2013 Rise Set
Actual Time 5:49 AM CDT 8:23 PM CDT
Civil Twilight 5:14 AM CDT 8:58 PM CDT
Nautical Twilight 4:29 AM CDT 9:42 PM CDT
Astronomical Twilight 3:38 AM CDT 10:33 PM CDT
Moon 8:52 AM CDT (8/9) 9:14 PM CDT (8/9)
Length of Visible Light 15h 44m
Length of Day
14h 34m
Waxing Crescent, 8% of the Moon is Illuminated
Aug 9
Waxing Crescent
Aug 14
First Quarter
Aug 20
Full
Aug 28
Last Quarter
Sep 5
New

Hourly Weather History & Observations

Time (CDT) Temp. Windchill Dew Point Humidity Pressure Visibility Wind Dir Wind Speed Gust Speed Precip Events Conditions
12:13 AM 51.8 °F - 44.6 °F 76% 29.96 in 10.0 mi West 4.6 mph - N/A   Scattered Clouds
12:34 AM 51.8 °F - 44.6 °F 76% 29.96 in 10.0 mi WNW 5.8 mph - N/A   Scattered Clouds
12:53 AM 50.0 °F - 44.6 °F 82% 29.95 in 10.0 mi West 3.5 mph - N/A   Scattered Clouds
1:13 AM 48.2 °F - 44.6 °F 87% 29.95 in 10.0 mi WNW 3.5 mph - N/A   Clear
1:33 AM 48.2 °F - 44.6 °F 87% 29.95 in 10.0 mi West 3.5 mph - N/A   Clear
1:53 AM 46.4 °F 44.3 °F 42.8 °F 87% 29.95 in 10.0 mi WNW 4.6 mph - N/A   Clear
2:14 AM 46.4 °F 45.2 °F 42.8 °F 87% 29.95 in 10.0 mi WNW 3.5 mph - N/A   Clear
2:33 AM 46.4 °F 44.3 °F 42.8 °F 87% 29.95 in 10.0 mi West 4.6 mph - N/A   Clear
2:53 AM 46.4 °F 44.3 °F 42.8 °F 87% 29.94 in 10.0 mi West 4.6 mph - N/A   Clear
3:13 AM 48.2 °F - 44.6 °F 87% 29.93 in 10.0 mi West 4.6 mph - N/A   Clear
3:33 AM 48.2 °F - 44.6 °F 87% 29.93 in 10.0 mi West 5.8 mph - N/A   Clear
3:54 AM 48.2 °F - 44.6 °F 87% 29.93 in 10.0 mi West 5.8 mph - N/A   Clear
4:13 AM 48.2 °F - 44.6 °F 87% 29.93 in 10.0 mi WSW 5.8 mph - N/A   Clear
4:33 AM - - 44.6 °F N/A% 29.93 in 10.0 mi West 6.9 mph - N/A   Clear
4:54 AM 48.2 °F - 44.6 °F 87% 29.93 in 10.0 mi West 6.9 mph - N/A   Clear
5:14 AM 48.2 °F - 44.6 °F 87% 29.92 in 10.0 mi West 6.9 mph - N/A   Clear
5:33 AM 48.2 °F - 44.6 °F 87% 29.92 in 10.0 mi West 8.1 mph - N/A   Clear
5:53 AM 48.2 °F - 44.6 °F 87% 29.92 in 10.0 mi West 5.8 mph - N/A   Clear
6:14 AM 48.2 °F - 44.6 °F 87% 29.92 in 10.0 mi West 6.9 mph - N/A   Clear
6:33 AM 48.2 °F - 44.6 °F 87% 29.92 in 10.0 mi West 6.9 mph - N/A   Clear
6:53 AM 48.2 °F - 44.6 °F 87% 29.91 in 10.0 mi WSW 4.6 mph - N/A   Clear
7:14 AM 48.2 °F - 44.6 °F 87% 29.91 in 10.0 mi West 4.6 mph - N/A   Clear
7:33 AM 50.0 °F - 44.6 °F 82% 29.91 in 10.0 mi West 8.1 mph - N/A   Clear
7:53 AM 50.0 °F - 44.6 °F 82% 29.91 in 10.0 mi West 9.2 mph - N/A   Clear
8:14 AM 51.8 °F - 44.6 °F 76% 29.91 in 10.0 mi West 10.4 mph - N/A   Clear
8:33 AM 51.8 °F - 44.6 °F 76% 29.92 in 10.0 mi West 8.1 mph - N/A   Clear
8:54 AM 55.4 °F - 46.4 °F 72% 29.91 in 10.0 mi West 12.7 mph 23.0 mph N/A   Clear
9:13 AM 57.2 °F - 46.4 °F 67% 29.91 in 10.0 mi WNW 9.2 mph 20.7 mph N/A   Scattered Clouds
9:33 AM 59.0 °F - 46.4 °F 63% 29.91 in 10.0 mi West 11.5 mph 23.0 mph N/A   Scattered Clouds
9:54 AM 57.2 °F - 46.4 °F 67% 29.92 in 10.0 mi WNW 13.8 mph 20.7 mph N/A   Scattered Clouds
10:13 AM 57.2 °F - 46.4 °F 67% 29.93 in 10.0 mi WNW 11.5 mph 19.6 mph N/A   Mostly Cloudy
10:33 AM 57.2 °F - 46.4 °F 67% 29.93 in 10.0 mi WNW 9.2 mph 17.3 mph N/A   Mostly Cloudy
10:54 AM 57.2 °F - 46.4 °F 67% 29.94 in 10.0 mi West 10.4 mph 17.3 mph N/A   Mostly Cloudy
11:13 AM 55.4 °F - 48.2 °F 77% 29.95 in 5.0 mi WNW 5.8 mph - N/A Rain Light Rain
11:34 AM 57.2 °F - 48.2 °F 72% 29.95 in 10.0 mi West 9.2 mph - N/A   Mostly Cloudy
11:53 AM 55.4 °F - 48.2 °F 77% 29.96 in 4.0 mi West 6.9 mph - N/A Rain Rain
12:14 PM 59.0 °F - 50.0 °F 72% 29.97 in 4.0 mi West 10.4 mph 17.3 mph N/A   Haze
12:33 PM 55.4 °F - 48.2 °F 77% 29.97 in 10.0 mi WNW 4.6 mph - N/A   Mostly Cloudy
12:53 PM 59.0 °F - 48.2 °F 67% 29.98 in 10.0 mi NNW 12.7 mph 16.1 mph N/A   Mostly Cloudy
1:14 PM 55.4 °F - 48.2 °F 77% 29.99 in 5.0 mi NW 8.1 mph 16.1 mph N/A Rain Rain
1:33 PM 59.0 °F - 50.0 °F 72% 29.98 in 10.0 mi NW 11.5 mph 18.4 mph N/A   Scattered Clouds
1:53 PM 60.8 °F - 48.2 °F 63% 29.97 in 10.0 mi NW 12.7 mph 19.6 mph N/A   Clear
2:14 PM 62.6 °F - 46.4 °F 55% 29.98 in 10.0 mi NW 12.7 mph 17.3 mph N/A   Clear
2:33 PM 62.6 °F - 48.2 °F 59% 29.98 in 10.0 mi WNW 9.2 mph 16.1 mph N/A   Clear
2:53 PM 60.8 °F - 46.4 °F 59% 29.99 in 10.0 mi NW 8.1 mph - N/A   Scattered Clouds
3:14 PM 64.4 °F - 46.4 °F 52% 29.99 in 10.0 mi NW 11.5 mph 19.6 mph N/A   Scattered Clouds
3:33 PM 64.4 °F - 46.4 °F 52% 29.99 in 10.0 mi WNW 8.1 mph 20.7 mph N/A   Clear
3:54 PM 64.4 °F - 46.4 °F 52% 30.00 in 10.0 mi NW 9.2 mph 18.4 mph N/A   Scattered Clouds
4:14 PM 64.4 °F - 46.4 °F 52% 30.00 in 10.0 mi NNW 5.8 mph - N/A   Scattered Clouds
4:33 PM 62.6 °F - 44.6 °F 52% 30.01 in 10.0 mi NW 9.2 mph 18.4 mph N/A   Clear
4:53 PM 62.6 °F - 44.6 °F 52% 30.01 in 10.0 mi NW 11.5 mph - N/A   Scattered Clouds
5:13 PM 64.4 °F - 46.4 °F 52% 30.01 in 10.0 mi North 11.5 mph 18.4 mph N/A   Scattered Clouds
5:33 PM 60.8 °F - 46.4 °F 59% 30.02 in 10.0 mi WNW 4.6 mph - N/A   Mostly Cloudy
5:54 PM 62.6 °F - 46.4 °F 55% 30.02 in 10.0 mi NW 6.9 mph - N/A   Scattered Clouds
6:13 PM 60.8 °F - 46.4 °F 59% 30.02 in 10.0 mi NNW 8.1 mph - N/A   Scattered Clouds
6:33 PM 59.0 °F - 46.4 °F 63% 30.02 in 10.0 mi NW 4.6 mph - N/A   Scattered Clouds
6:54 PM 60.8 °F - 46.4 °F 59% 30.03 in 10.0 mi NW 3.5 mph - N/A   Scattered Clouds
7:13 PM 57.2 °F - 46.4 °F 67% 30.03 in 10.0 mi NW 3.5 mph - N/A   Clear
7:33 PM 57.2 °F - 46.4 °F 67% 30.04 in 10.0 mi Calm Calm - N/A   Clear
7:53 PM 55.4 °F - 46.4 °F 72% 30.04 in 10.0 mi NNW 3.5 mph - N/A   Clear
8:14 PM 55.4 °F - 46.4 °F 72% 30.05 in 10.0 mi NW 3.5 mph - N/A   Scattered Clouds
8:34 PM 53.6 °F - 46.4 °F 77% 30.06 in 10.0 mi NW 3.5 mph - N/A   Clear
8:53 PM 51.8 °F - 46.4 °F 82% 30.07 in 10.0 mi NW 3.5 mph - N/A   Clear
9:14 PM 50.0 °F - 44.6 °F 82% 30.07 in 10.0 mi NW 4.6 mph - N/A   Clear
9:34 PM 50.0 °F - 44.6 °F 82% 30.08 in 10.0 mi WNW 3.5 mph - N/A   Clear
9:53 PM 50.0 °F - 44.6 °F 82% 30.08 in 10.0 mi WNW 4.6 mph - N/A   Scattered Clouds
10:14 PM 50.0 °F - 44.6 °F 82% 30.08 in 10.0 mi NW 3.5 mph - N/A   Scattered Clouds
10:33 PM 48.2 °F - 44.6 °F 87% 30.08 in 10.0 mi NW 4.6 mph - N/A   Clear
10:53 PM 48.2 °F - 44.6 °F 87% 30.09 in 10.0 mi WNW 4.6 mph - N/A   Clear
11:14 PM 48.2 °F - 44.6 °F 87% 30.09 in 10.0 mi NW 3.5 mph - N/A   Clear
11:33 PM 46.4 °F 45.2 °F 42.8 °F 87% 30.10 in 10.0 mi NW 3.5 mph - N/A   Clear
11:53 PM 48.2 °F - 42.8 °F 82% 30.10 in 10.0 mi NW 3.5 mph - N/A   Clear